This is the latest recevied weather packets stored in our database for station/object JA7ZQY-10. If no packets are shown the sender has not sent any weather packets the latest 1 day(s).
| Time | Temp. | Humidity | Pressure | Rain* | Wind** | Luminosity | Snow |
|---|---|---|---|---|---|---|---|
| 1778038490 | 22.78° C | 30% | 1018.1 hPa | 0 mm | - | - | - |
| 1778037891 | 22.22° C | 32% | 1018.2 hPa | 0 mm | - | - | - |
| 1778037290 | 22.78° C | 30% | 1018.4 hPa | 0 mm | - | - | - |
| 1778036690 | 23.33° C | 30% | 1018.4 hPa | 0 mm | - | - | - |
| 1778036090 | 22.22° C | 30% | 1018.4 hPa | 0 mm | - | - | - |
| 1778035490 | 22.78° C | 30% | 1018.5 hPa | 0 mm | - | - | - |
| 1778034891 | 22.22° C | 29% | 1018.6 hPa | 0 mm | - | - | - |
| 1778034290 | 22.22° C | 31% | 1019 hPa | 0 mm | - | - | - |
| 1778033090 | 22.22° C | 32% | 1018.6 hPa | 0 mm | - | - | - |
| 1778032489 | 22.22° C | 31% | 1019 hPa | 0 mm | - | - | - |
| 1778031891 | 22.22° C | 31% | 1019 hPa | 0.25 mm | - | - | - |
| 1778031290 | 21.67° C | 31% | 1018.7 hPa | 0.25 mm | - | - | - |
| 1778030691 | 21.67° C | 30% | 1019.5 hPa | 0.25 mm | - | - | - |
| 1778030090 | 21.67° C | 30% | 1019.4 hPa | 0.25 mm | - | - | - |
| 1778029490 | 21.67° C | 31% | 1019.2 hPa | 0.25 mm | - | - | - |
| 1778028891 | 21.67° C | 31% | 1019.3 hPa | 0.25 mm | - | - | - |
| 1778028290 | 21.67° C | 32% | 1019.3 hPa | 0 mm | - | - | - |
| 1778027689 | 21.67° C | 31% | 1019.3 hPa | 0 mm | - | - | - |
| 1778027090 | 21.67° C | 31% | 1019.3 hPa | 0 mm | - | - | - |
| 1778025890 | 21.11° C | 31% | 1019.1 hPa | 0 mm | - | - | - |
| 1778024691 | 20.56° C | 31% | 1019.4 hPa | 0 mm | - | - | - |
| 1778024090 | 20.56° C | 32% | 1019.2 hPa | 0 mm | - | - | - |
| 1778021091 | 19.44° C | 30% | 1019.5 hPa | 0 mm | - | - | - |
| 1778020490 | 19.44° C | 30% | 1019.6 hPa | 0 mm | - | - | - |
| 1778019290 | 18.89° C | 27% | 1019.5 hPa | 0 mm | - | - | - |
* Rain latest hour (hover to see other rain measurements)
** Current wind speed in m/s (hover to see current wind gust speed)